SL-16 DEB, 22576

Orbit data source: Space-Track

SL-16 DEB, 22576 is space debris in LEO originally from a launch on Fri, 26 Mar 1993 UTC launched from the Tyuratam Missile And Space Complex (TTMTR). Debris objects in space refer to the collection of defunct objects orbiting the Earth. Examples of debris include non-operational satellites, rocket bodies, and fragments generated from explosions, collisions, or faulty payload assembly.

Loading next visibility...
Identifier
22576, 1993-016D
Orbit
LEO
Country
Flag of CISCIS
Related business
Manufacturer
Yuzhnoe
Mission
Spacecraft
Bus & Motor
SEP MOTOR COVER, Unknown motor
Mass
~0 kg wet, ~1 kg dry
Launch date (UTC)
1993-03-26 (33 years ago)
Launch vehicle
Unknown
Launch site
Tyuratam Missile And Space Complex (TTMTR)
Object type
Payload
Rocket body
Debris
Shape & HBR
Unknown shape, 0.2 m
Radar Cross Section
Small (<0.1 m²)

Expand to show TLE details & history
Last TLE update: 11 hours ago

TLE from 11 hours ago
0 SL-16 DEB
1 22576U 93016D   25308.86728034  .00000077  00000-0  11104-3 0  9991
2 22576  70.9980 352.7756 0198680 158.1054  19.0141 13.73521761633844
Epoch: 2025-11-04T20:48Z
TLE epoch observation values (Epoch: 2025-11-04T20:48:53.021Z)
Latitude
1.9121°
Longitude
175.5513°
Altitude
851.032 km
Speed
7.497 km/s
True Right ascension
11h 28m 28s
True Declination
1° 54' 03"
Sunlit
Object was in daylight at epoch
Visualization orbit readout
Latitude
Unknown
Longitude
Unknown
Altitude
Unknown
Speed
Unknown
Apparent Right ascension
Unknown
Apparent Declination
Unknown
Sunlit
N/A
Visualization observer readout
Local Sidereal Time
04:16:42
Azimuth
Unknown
Elevation
Unknown
Doppler factor
Unknown
Orbital elements
Apogee altitude
1,131.208 km
Perigee altitude
838.63 km
Semi-major axis
7,363.056 km
Eccentricity
0.01987
Inclination
70.998°
RAAN
352.7756°
Arg. of periapsis
158.1054°
True anomaly
19.77365°
Mean anomaly
19.0141°
Eccentric anomaly
19.39207°
Mean motion
3.43523 °/min
Orbital period
104.8 mins
BSTAR
0.00011104
Loading maneuver chart data...
Computing Atmospheric mass density...
Loading historical data...
Loading historical data...
Loading historical data...
Loading historical data...
Loading historical data...
Loading historical data...
Loading historical data...

Documentation

Showing up to 5 results
|